This is the latest recevied weather packets stored in our database for station/object DL1GHN-6. If no packets are shown the sender has not sent any weather packets the latest 10 day(s).
| Time | Temp. | Humidity | Pressure | Rain* | Wind** | Luminosity | Snow |
|---|---|---|---|---|---|---|---|
| 1777650325 | 25° C | 27% | 1021.4 hPa | 0 mm | - | 40 W/m² | - |
| 1777650024 | 25.56° C | 28% | 1021.4 hPa | 0 mm | - | 353 W/m² | - |
| 1777649724 | 25.56° C | 27% | 1021.5 hPa | 0 mm | - | 425 W/m² | - |
| 1777649424 | 25.56° C | 30% | 1021.5 hPa | 0 mm | - | 438 W/m² | - |
| 1777649124 | 26.11° C | 27% | 1021.6 hPa | 0 mm | - | 452 W/m² | - |
| 1777648825 | 26.11° C | 31% | 1021.6 hPa | 0 mm | - | 461 W/m² | - |
| 1777648525 | 26.11° C | 28% | 1021.7 hPa | 0 mm | - | 476 W/m² | - |
| 1777648225 | 26.11° C | 27% | 1021.8 hPa | 0 mm | - | 489 W/m² | - |
| 1777647923 | 25.56° C | 28% | 1021.8 hPa | 0 mm | - | 504 W/m² | - |
| 1777647624 | 25.56° C | 28% | 1021.9 hPa | 0 mm | - | 517 W/m² | - |
| 1777647323 | 25.56° C | 26% | 1022 hPa | 0 mm | - | 529 W/m² | - |
| 1777647023 | 25.56° C | 29% | 1022 hPa | 0 mm | - | 541 W/m² | - |
| 1777646725 | 26.11° C | 27% | 1022 hPa | 0 mm | - | 550 W/m² | - |
| 1777646423 | 25.56° C | 26% | 1022 hPa | 0 mm | - | 566 W/m² | - |
| 1777646124 | 25.56° C | 29% | 1022.1 hPa | 0 mm | - | 577 W/m² | - |
| 1777645825 | 25.56° C | 26% | 1022.1 hPa | 0 mm | - | 591 W/m² | - |
| 1777645525 | 25.56° C | 25% | 1022.2 hPa | 0 mm | - | 601 W/m² | - |
| 1777645224 | 25.56° C | 26% | 1022.2 hPa | 0 mm | - | 615 W/m² | - |
| 1777644925 | 25.56° C | 28% | 1022.3 hPa | 0 mm | - | 626 W/m² | - |
| 1777644625 | 25.56° C | 27% | 1022.4 hPa | 0 mm | - | 633 W/m² | - |
| 1777644325 | 25.56° C | 31% | 1022.4 hPa | 0 mm | - | 647 W/m² | - |
| 1777644024 | 25° C | 30% | 1022.5 hPa | 0 mm | - | 656 W/m² | - |
| 1777643723 | 25° C | 29% | 1022.6 hPa | 0 mm | - | 664 W/m² | - |
| 1777643424 | 25.56° C | 26% | 1022.6 hPa | 0 mm | - | 677 W/m² | - |
| 1777643123 | 25° C | 31% | 1022.7 hPa | 0 mm | - | 686 W/m² | - |
* Rain latest hour (hover to see other rain measurements)
** Current wind speed in m/s (hover to see current wind gust speed)